TimeEST,TemperatureF,Dew PointF,Humidity,Sea Level PressureIn,VisibilityMPH,Wind Direction,Wind SpeedMPH,Gust SpeedMPH,PrecipitationIn,Events,Conditions,WindDirDegrees,DateUTC
12:52 AM,25.0,21.9,88,29.62,6.0,Calm,Calm,-,0.00,Snow,Light Snow,0,2013-01-01 05:52:00
1:26 AM,26.6,23.0,86,29.56,1.8,Calm,Calm,-,0.00,Snow,Light Snow,0,2013-01-01 06:26:00
1:37 AM,26.6,21.2,80,29.56,3.0,Calm,Calm,-,0.00,Snow,Light Snow,0,2013-01-01 06:37:00
1:52 AM,26.1,23.0,88,29.62,3.0,Calm,Calm,-,0.00,Snow,Light Snow,0,2013-01-01 06:52:00
1:59 AM,24.8,23.0,93,29.56,1.8,Calm,Calm,-,0.01,Snow,Light Snow,0,2013-01-01 06:59:00
2:06 AM,26.6,23.0,86,29.56,1.0,Calm,Calm,-,0.01,Snow,Light Snow,0,2013-01-01 07:06:00
2:09 AM,26.6,23.0,86,29.57,0.8,Calm,Calm,-,0.01,Snow,Light Snow,0,2013-01-01 07:09:00
2:16 AM,26.6,23.0,86,29.57,1.2,Calm,Calm,-,0.01,Snow,Light Snow,0,2013-01-01 07:16:00
2:21 AM,26.6,24.8,93,29.57,2.0,Calm,Calm,-,0.01,Snow,Light Snow,0,2013-01-01 07:21:00
2:30 AM,28.4,23.0,80,29.56,6.0,Calm,Calm,-,0.01,Snow,Light Snow,0,2013-01-01 07:30:00
2:38 AM,28.4,23.0,80,29.56,9.0,SW,4.6,-,0.01,,Overcast,230,2013-01-01 07:38:00
2:52 AM,28.9,21.9,75,29.61,10.0,WSW,3.5,-,0.01,,Overcast,250,2013-01-01 07:52:00
3:28 AM,28.4,21.2,74,29.55,10.0,Variable,3.5,-,N/A,,Overcast,0,2013-01-01 08:28:00
3:40 AM,28.4,23.0,80,29.56,1.8,Variable,5.8,-,0.00,Snow,Light Snow,0,2013-01-01 08:40:00
3:43 AM,28.4,24.8,86,29.56,1.2,Variable,5.8,-,0.00,Snow,Light Snow,0,2013-01-01 08:43:00
3:52 AM,28.0,24.1,85,29.62,1.2,Variable,6.9,-,0.01,Snow,Light Snow,0,2013-01-01 08:52:00
4:02 AM,28.4,23.0,80,29.57,2.0,Variable,4.6,17.3,0.00,Snow,Light Snow,0,2013-01-01 09:02:00
4:13 AM,28.4,21.2,74,29.57,3.0,Variable,4.6,-,0.00,Snow,Light Snow,0,2013-01-01 09:13:00
4:52 AM,28.0,19.0,69,29.63,10.0,Variable,3.5,-,0.00,,Overcast,0,2013-01-01 09:52:00
5:52 AM,26.1,16.0,66,29.67,8.0,Variable,5.8,17.3,0.00,Snow,Light Snow,0,2013-01-01 10:52:00
6:52 AM,23.0,10.9,60,29.71,10.0,WNW,8.1,18.4,N/A,,Mostly Cloudy,300,2013-01-01 11:52:00
7:52 AM,19.9,7.0,57,29.71,2.5,WNW,16.1,32.2,0.00,Snow,Light Snow,290,2013-01-01 12:52:00
7:59 AM,19.4,6.8,58,29.65,3.0,WNW,16.1,36.8,0.00,Snow,Light Snow,290,2013-01-01 12:59:00
8:52 AM,18.0,6.1,60,29.75,10.0,NNW,12.7,18.4,0.00,,Clear,330,2013-01-01 13:52:00
10:52 AM,16.0,3.0,57,29.76,9.0,NW,9.2,21.9,0.00,,Clear,310,2013-01-01 15:52:00
11:52 AM,17.1,3.0,54,29.75,10.0,Variable,6.9,-,N/A,,Clear,0,2013-01-01 16:52:00
12:52 PM,17.1,-0.0,47,29.74,10.0,WNW,6.9,24.2,0.00,,Clear,290,2013-01-01 17:52:00
1:52 PM,15.1,-0.0,51,29.73,10.0,WNW,10.4,20.7,0.00,,Partly Cloudy,290,2013-01-01 18:52:00
2:52 PM,14.0,1.0,56,29.74,10.0,WNW,10.4,19.6,N/A,,Clear,290,2013-01-01 19:52:00
3:52 PM,12.9,-0.9,54,29.76,10.0,WNW,9.2,20.7,N/A,,Clear,300,2013-01-01 20:52:00
4:52 PM,10.0,-0.9,61,29.77,10.0,WNW,9.2,-,N/A,,Clear,300,2013-01-01 21:52:00
5:52 PM,9.0,-0.9,64,29.80,10.0,WNW,12.7,21.9,N/A,,Clear,300,2013-01-01 22:52:00
6:52 PM,8.1,-2.0,64,29.83,10.0,WNW,8.1,21.9,N/A,,Partly Cloudy,300,2013-01-01 23:52:00
7:52 PM,7.0,-2.9,64,29.85,10.0,WNW,8.1,20.7,N/A,,Clear,290,2013-01-02 00:52:00
8:32 PM,6.8,-2.2,67,29.79,9.0,WNW,10.4,26.5,N/A,,Mostly Cloudy,290,2013-01-02 01:32:00
8:52 PM,6.1,-2.9,67,29.86,10.0,WNW,12.7,20.7,N/A,,Overcast,290,2013-01-02 01:52:00
9:49 PM,5.0,-4.0,66,29.79,10.0,West,8.1,18.4,N/A,,Scattered Clouds,280,2013-01-02 02:49:00
9:52 PM,5.0,-4.0,66,29.86,10.0,WNW,8.1,16.1,N/A,,Partly Cloudy,300,2013-01-02 02:52:00
10:52 PM,5.0,-4.0,66,29.88,10.0,WNW,6.9,19.6,N/A,,Partly Cloudy,300,2013-01-02 03:52:00
11:52 PM,5.0,-2.9,70,29.86,9.0,NW,4.6,-,N/A,,Overcast,310,2013-01-02 04:52:00